This is the latest recevied weather packets stored in our database for station/object KI4HRG. If no packets are shown the sender has not sent any weather packets the latest 10 day(s).
| Time | Temp. | Humidity | Pressure | Rain* | Wind** | Luminosity | Snow |
|---|---|---|---|---|---|---|---|
| 1777787210 | 12.78° C | 66% | 1018.9 hPa | 0 mm | - | 0 W/m² | - |
| 1777786907 | 12.78° C | 67% | 1018.8 hPa | 0 mm | - | 0 W/m² | - |
| 1777786605 | 12.22° C | 70% | 1018.8 hPa | 0 mm | - | 0 W/m² | - |
| 1777786304 | 10.56° C | 77% | 1018.5 hPa | 0 mm | - | 0 W/m² | - |
| 1777786000 | 9.44° C | 86% | 1018.6 hPa | 0 mm | - | 0 W/m² | - |
| 1777785696 | 9.44° C | 88% | 1018.6 hPa | 0 mm | - | 0 W/m² | - |
| 1777785391 | 9.44° C | 88% | 1018.3 hPa | 0 mm | - | 0 W/m² | - |
| 1777785090 | 9.44° C | 87% | 1018.3 hPa | 0 mm | - | 0 W/m² | - |
| 1777784786 | 9.44° C | 86% | 1018.4 hPa | 0 mm | - | 0 W/m² | - |
| 1777784483 | 9.44° C | 85% | 1018.3 hPa | 0 mm | - | 0 W/m² | - |
| 1777784180 | 9.44° C | 85% | 1018.2 hPa | 0 mm | - | 0 W/m² | - |
| 1777783877 | 10° C | 84% | 1018.1 hPa | 0 mm | - | 0 W/m² | - |
| 1777783574 | 10° C | 83% | 1018.1 hPa | 0 mm | - | 0 W/m² | - |
| 1777783271 | 10° C | 83% | 1018.1 hPa | 0 mm | - | 0 W/m² | - |
| 1777782967 | 10° C | 84% | 1018 hPa | 0 mm | - | 0 W/m² | - |
| 1777782664 | 10° C | 83% | 1018.1 hPa | 0 mm | - | 0 W/m² | - |
| 1777782361 | 10.56° C | 82% | 1018 hPa | 0 mm | - | 0 W/m² | - |
| 1777782057 | 10.56° C | 81% | 1017.9 hPa | 0 mm | - | 0 W/m² | - |
| 1777781754 | 10.56° C | 80% | 1017.8 hPa | 0 mm | - | 0 W/m² | - |
| 1777781452 | 11.11° C | 79% | 1017.8 hPa | 0 mm | - | 0 W/m² | - |
| 1777781149 | 11.11° C | 77% | 1018 hPa | 0 mm | - | 0 W/m² | - |
| 1777780846 | 11.67° C | 76% | 1017.5 hPa | 0 mm | - | 0 W/m² | - |
| 1777780543 | 11.67° C | 76% | 1017.7 hPa | 0 mm | - | 0 W/m² | - |
| 1777780241 | 11.67° C | 74% | 1017.7 hPa | 0 mm | - | 0 W/m² | - |
| 1777779937 | 12.22° C | 73% | 1017.8 hPa | 0 mm | - | 0 W/m² | - |
* Rain latest hour (hover to see other rain measurements)
** Current wind speed in m/s (hover to see current wind gust speed)